Change the Weather History Date:

Tuesday, May 7, 2013

  Actual Average Record
Temperature  
Mean Temperature 45 °F 49 °F  
Max Temperature 58 °F 67 °F 82 °F (1966)
Min Temperature 32 °F 32 °F 10 °F (1965)
Degree Days  
Heating Degree Days 20 16  
Month to date heating degree days 128 115  
Since 1 July heating degree days 6542 6919  
Cooling Degree Days 0 0  
Month to date cooling degree days 0 0  
Year to date cooling degree days 0 0  
Moisture  
Dew Point 35 °F    
Average Humidity 65    
Maximum Humidity 93    
Minimum Humidity 36    
Precipitation  
Precipitation 0.16 in 0.02 in 0.20 in (2000)
Month to date precipitation 0.16 0.19  
Year to date precipitation 2.64 3.69  
Sea Level Pressure  
Sea Level Pressure 29.84 in    
Wind  
Wind Speed 7 mph (SSE)    
Max Wind Speed 26 mph    
Max Gust Speed 32 mph    
T = Trace of Precipitation, MM = Missing Value Source: NWS Daily Summary

Daily Weather History Graph

Daily Weather History Graph

Search for Another Location

Airport or City:

Trip Planner

Search our weather history database for the weather conditions in past years. The results will help you decide how hot, cold, wet, or windy it might be!

Date:

Astronomy

May. 07, 2013 Rise Set
Actual Time 5:37 AM PDT 7:44 PM PDT
Civil Twilight 5:07 AM PDT 8:13 PM PDT
Nautical Twilight 4:31 AM PDT 8:50 PM PDT
Astronomical Twilight 3:52 AM PDT 9:30 PM PDT
Moon 4:13 AM PDT (5/7) 5:48 PM PDT (5/7)
Length of Visible Light 15h 06m
Length of Day
14h 06m
Waning Crescent, 5% of the Moon is Illuminated
May 7
Waning Crescent
May 9
New
May 17
First Quarter
May 24
Full
May 31
Last Quarter

Hourly Weather History & Observations

Time (PDT) Temp. Windchill Dew Point Humidity Pressure Visibility Wind Dir Wind Speed Gust Speed Precip Events Conditions
12:53 AM 44.1 °F - 37.0 °F 76% 29.82 in - Calm Calm - N/A   Unknown
1:53 AM 42.1 °F 39.2 °F 36.0 °F 79% 29.81 in - East 4.6 mph - N/A   Unknown
2:53 AM 41.0 °F 36.4 °F 33.1 °F 73% 29.79 in - SSE 6.9 mph - N/A   Unknown
3:53 AM 37.9 °F 35.5 °F 34.0 °F 86% 29.81 in - SSW 3.5 mph - N/A   Unknown
4:53 AM 34.0 °F 28.0 °F 28.9 °F 82% 29.83 in - South 6.9 mph - N/A   Unknown
5:53 AM 32.0 °F 26.4 °F 27.0 °F 82% 29.86 in - SSE 5.8 mph - N/A   Unknown
6:53 AM 39.0 °F 35.7 °F 30.9 °F 73% 29.86 in - South 4.6 mph - N/A   Unknown
7:53 AM 46.9 °F - 34.0 °F 61% 29.83 in - WSW 4.6 mph - N/A   Unknown
8:53 AM 52.0 °F - 33.1 °F 49% 29.81 in - Calm Calm - N/A   Unknown
9:53 AM 55.0 °F - 32.0 °F 42% 29.80 in - Variable 3.5 mph - N/A   Unknown
10:53 AM 55.0 °F - 30.0 °F 38% 29.80 in - ESE 5.8 mph - N/A   Unknown
11:53 AM 55.9 °F - 30.0 °F 37% 29.78 in - East 8.1 mph - N/A   Unknown
12:53 PM 57.0 °F - 30.0 °F 36% 29.76 in - Variable 3.5 mph - N/A   Unknown
1:53 PM 52.0 °F - 35.1 °F 53% 29.80 in - SSE 24.2 mph - N/A   Unknown
2:53 PM 51.1 °F - 36.0 °F 56% 29.81 in - SSE 19.6 mph - N/A   Unknown
3:53 PM 53.1 °F - 34.0 °F 48% 29.82 in - SSE 13.8 mph - N/A   Unknown
4:53 PM 44.1 °F 36.8 °F 39.9 °F 85% 29.89 in - NNW 16.1 mph 27.6 mph 0.01 in   Unknown
5:53 PM 44.1 °F 40.8 °F 42.1 °F 93% 29.92 in - NW 5.8 mph - 0.15 in   Unknown
6:53 PM 44.1 °F 40.8 °F 39.9 °F 85% 29.90 in - South 5.8 mph - N/A   Unknown
7:53 PM 44.1 °F 40.1 °F 39.9 °F 85% 29.89 in - South 6.9 mph - N/A   Unknown
8:53 PM 43.0 °F 41.3 °F 39.9 °F 89% 29.89 in - SW 3.5 mph - N/A   Unknown
9:53 PM 41.0 °F 36.4 °F 39.0 °F 93% 29.90 in - SSE 6.9 mph - N/A   Unknown
10:53 PM 39.0 °F 34.8 °F 36.0 °F 89% 29.91 in - South 5.8 mph - N/A   Unknown
11:53 PM 36.0 °F - 34.0 °F 93% 29.93 in - Calm Calm - N/A   Unknown